Flag for U.S.A. Weather past 2 weeks in Shreveport, Louisiana, U.S.A.

Now
79 °F

Scattered clouds.


Feels Like: 81 °F
Forecast: 62 / 82 °F
Wind: 12 mph from Southwest

Location: Shreveport Regional Airport

Current Time: Apr 19, 2015 at 3:23:07 PM

Latest Report: Apr 19, 2015 at 2:56 PM


Visibility: 10 mi

Pressure: 29.69 "Hg

Humidity: 62%

Dew point: 65 °F

Location of ShreveportLocation

Historic Weather in Shreveport — Graph

°F

Shreveport temperature yesterday

Maximum temperature yesterday: 74 °F (at 1:56 PM)
Minimum temperature yesterday: 66 °F (at 11:56 PM)
Average temperature yesterday: 70 °F

Past Weeks' High & Low Weather Summary

 TemperatureHumidityPressure
High85 °F (Apr 7, 3:56 PM)100% (Apr 6, 3:56 AM)30.30 "Hg (Apr 6, 3:56 AM)
Low48 °F (Apr 11, 3:56 AM)29% (Apr 4, 4:56 PM)29.70 "Hg (Apr 19, 4:56 AM)
Average68 °F78%29.97 "Hg
* Reported Apr 4 1:56 PM — Apr 19 1:56 PM, Shreveport, Weather by CustomWeather, © 2015

Note: Actual official high and low records may vary slightly from our data, if they occured in-between our weather recording intervals... More about our weather records

Advertising

Shreveport weather history for previous 24 hours

 ConditionsComfort  
Time TempWeatherWind HumidityBarometerVisibility
1:56 PM
Sun, Apr 19
77 °FPassing clouds.13 mph66%29.70 "Hg10 mi
12:56 PM75 °FScattered clouds.10 mph66%29.73 "Hg10 mi
11:56 AM72 °FPartly sunny.9 mph68%29.76 "Hg10 mi
11:01 AM68 °FScattered clouds.6 mph76%29.78 "Hg10 mi
9:56 AM63 °FPartly sunny.6 mph87%29.78 "Hg10 mi
8:56 AM61 °FLow clouds.6 mph90%29.79 "Hg10 mi
7:56 AM60 °FLow clouds.8 mph93%29.79 "Hg10 mi
7:03 AM59 °FFog.7 mph96%29.79 "Hg5 mi
6:56 AM59 °FFog.10 mph96%29.78 "Hg4 mi
5:56 AM59 °FFog.7 mph96%29.74 "Hg10 mi
4:56 AM59 °FPassing clouds.No wind100%29.70 "Hg10 mi
3:56 AM61 °FOvercast.7 mph97%29.71 "Hg10 mi
2:56 AM61 °FRain. Fog.8 mph97%29.77 "Hg5 mi
1:56 AM61 °FThunderstorms. Low clouds.17 mph93%29.80 "Hg10 mi
12:56 AM67 °FThunderstorms. Fog.10 mph90%29.78 "Hg5 mi
11:56 PM
Sat, Apr 18
66 °FThunderstorms. Mostly cloudy.6 mph96%29.75 "Hg10 mi
10:56 PM67 °FPassing clouds.5 mph93%29.76 "Hg10 mi
9:56 PM67 °FPassing clouds.5 mph90%29.77 "Hg10 mi
8:56 PM67 °FPartly cloudy.5 mph90%29.77 "Hg10 mi
7:56 PM69 °FBroken clouds.3 mph87%29.75 "Hg10 mi
6:56 PM73 °FBroken clouds.7 mph79%29.76 "Hg10 mi
5:56 PM74 °FBroken clouds.6 mph74%29.78 "Hg10 mi
4:56 PM73 °FMore clouds than sun.6 mph79%29.78 "Hg10 mi
3:56 PM74 °FCloudy.8 mph79%29.80 "Hg10 mi
Weather by CustomWeather, © 2015

See weather overviewHow to use our weather pages